Погода в Кепеме

Индия     15°12′49″N   74°03′55″E
темп.,
°C
ветер,
м/с
пор.,
м/с
влажн.,
%
обл.,
%
осадки,
мм/ч
давл.,
гПа
погр.,
м
10 апреля, сб
сб1023:30+25ссз12835 0.0 100983
02:30+24ссв128555 0.0 100768
05:30+24ю118449 0.0 100862
08:30+28юз126756 0.0 1011285
11:30+35зюз43395 0.0 10101405
14:30+32з5454100 0.0 1008805
17:30+30зсз556346 0.0 1008812
20:30+27сз247678 0.0 1010154
11 апреля, вс
вс1123:30+26ссз237883 0.0 101099
02:30+26ююв017798 0.0 100980
05:30+25ююв11806 0.0 101061
08:30+30ююз11590 0.0 1012586
11:30+34зюз54440 0.0 10111425
14:30+34зюз65497 0.0 1008932
17:30+29зюз346779 0.0 1009539
20:30+27з117826 0.0 101192
12 апреля, пн
пн1223:30+26ююв118360 0.0 101278
02:30+25вюв11874 0.0 101073
05:30+24вюв119145 0.0 101140
08:30+30юв01655 0.0 1013552
11:30+35зюз44445 0.0 10121514
14:30+33зюз645336 0.0 10091025
17:30+29з236992 0.1 1009425
20:30+28зюз127499 0.0 1011102
13 апреля, вт
вт1323:30+26ссз118041 0.0 101275
02:30+25вюв11852 0.0 100976
05:30+24юв12898 0.0 101037
08:30+30ююз116248 0.0 1012490
11:30+34зюз334722 0.0 10121272
14:30+33зюз545030 0.2 10091273
17:30+32з325331 0.4 1009758
20:30+26юз1276100 0.1 101182
14 апреля, ср
ср1423:30+27сз0175100 0.1 101276
02:30+25вюв1182100 0.0 101052
05:30+25всв1181100 0.1 101150
08:30+30всв016255 0.0 1013380
11:30+34зсз344471 0.0 10121490
14:30+33з544831 0.1 1009882
17:30+30з555618 0.1 1008693
20:30+26сз23780 0.0 1011102